Regional Weather Roundup
Issued by NWS Northern Indiana

Home | Current Version | Previous Version | Text Only | Print | Product List | Glossary On
Versions: 1 2 3 4 5 6 7 8 9 10 11 12 13 14 15 16 17 18 19 20 21 22 23 24 25 26 27 28 29 30 31 32 33 34 35 36 37 38 39 40 41 42 43 44 45 46 47 48 49 50
000
ASUS43 KIWX 012000
RWRIWX

KIWX WEATHER ROUNDUP
NATIONAL WEATHER SERVICE NORTHERN INDIANA
400 PM EDT WED JUL 01 2015

NOTE: "FAIR" INDICATES FEW OR NO CLOUDS BELOW 12,000 FEET WITH NO
SIGNIFICANT WEATHER AND/OR OBSTRUCTIONS TO VISIBILITY.

* THESE STATIONS ARE NOT UNDER NWS QUALITY CONTROL. THEY ALSO MAY NOT
  REPORT WEATHER SUCH AS PRECIPITATION OR FOG.

INZ001>027-012100-
NORTHERN INDIANA

CITY           SKY/WX    TMP DP  RH WIND       PRES   REMARKS
GARY*          PTSUNNY   63  54  72 N10       29.98S
SOUTH BEND     SUNNY     68  52  56 N13       29.96S
ELKHART*       MOSUNNY   68  52  56 NW8       29.95F
GOSHEN         MOSUNNY   71  57  61 NW14      29.93F
ANGOLA*        MOSUNNY   73  66  78 NW8       29.92S
FORT WAYNE     MOSUNNY   74  58  57 NW10      29.92F

$$
INZ028>050-012100-
CENTRAL INDIANA

CITY           SKY/WX    TMP DP  RH WIND       PRES   REMARKS
LAFAYETTE      PTSUNNY   74  62  66 NE3       29.91F
KOKOMO*        CLOUDY    73  61  64 NW6       29.92S
MUNCIE*        MOSUNNY   75  60  59 VRB7      29.92S
INDIANAPOLIS   CLOUDY    76  60  57 CALM      29.91S

$$
MIZ043>046-050>051-056>058-064>065-071>073-077>080-012100-
SOUTHWEST LOWER MICHIGAN

CITY           SKY/WX    TMP DP  RH WIND       PRES   REMARKS
BATTLE CREEK   MOSUNNY   71  51  49 NW9       29.93F
COLDWATER*     MOSUNNY   70  53  54 NW5G17    29.93S
HILLSDALE*     MOSUNNY   71  55  56 W9        29.93S
HOLLAND        MOSUNNY   62  51  67 NW10      29.98S
GRAND RAPIDS   PTSUNNY   68  51  54 NW8       29.93S
KALAMAZOO      MOSUNNY   70  52  52 NW9       29.94S
STURGIS*       MOSUNNY   70  55  60 W6G16     29.92F
THREE RIVERS*  FAIR      69  51  52 NW10      29.93F

$$
OHZ001>008-015>018-024>025-012100-
NORTHWEST OHIO

CITY           SKY/WX    TMP DP  RH WIND       PRES   REMARKS
DEFIANCE       MOSUNNY   75  57  53 NW10G17   29.91F
FINDLAY        MOSUNNY   76  58  53 NW7       29.90F
TOLEDO EXPRESS PTSUNNY   74  57  55 W8        29.90F
TOLEDO METCALF PTSUNNY   74  56  53 NW9       29.90F
LIMA           MOSUNNY   72  58  61 NW10      29.91F

$$
AND FOR LAKE MICHIGAN COASTAL AND OPEN LAKE BUOY OBSERVATIONS

STATION/POSITION TEMP    WIND        PRES    VSBY  WAVE
                 AIR SEA DIR/SP/G                  HT/PER
                 (F)     (DEG/KT/KT) (MB)    (MI)  (FT/S)
CALUMET HARBOR    58      50/  8/ 10   N/A
MICHIGAN CITY     57      10/ 10/ 12   N/A
BURNS HARBOR      60      40/ 11/ 13 1015.6F
SAINT JOSEPH      60     340/  9/ 12   N/A
4 MI NW BRIDGMAN  58 63                N/A           3/ 5
MICHIGAN CITY     58 65   40/  8/ 10   N/A           3/ 5

$$
&&



USA.gov is the U.S. government's official web portal to all federal, state and local government web resources and services.